Location: Alsip
(41.6689°N, 87.7387°W)
Time: 14:21:05
(UTC+00:00)

Cosmos 1346 Rocket - Pass Details

Date: 14 July 2020
Orbit: 533 x 546 km, 81.2° (Epoch: 04 August)

Event Time Altitude Azimuth Distance (km) Brightness Sun altitude
Exits shadow 05:24:16 30° 294° (WNW) 971 4.3 -26.3°
Drops below altitude 10° 05:27:31 10° 349° (N) 1,796 6.4 -26.4°
Sets 05:29:53 0° 0° (N) 2,693 7.6 -26.4°
